Hourly Data Report for October 08, 2015

All times are specified in Local Standard Time (LST). Add 1 hour to adjust for Daylight Saving Time where and when it is observed.

KUGAARUK CLIMATE
NUNAVUT

68°32'15.060" N
89°47'47.020" W
15.80 m
2303094
71407
NBB

Download Data

Hourly Data (October 2015)
Hourly Data Report for October 8, 2015
Temp Definition
°C
Dew Point Temp Definition
°C
Rel Hum Definition
%
Wind Dir Definition
10's deg

Wind Spd Definition
km/h
Visibility Definition
km
Stn Press Definition
kPa
Hmdx Definition


Wind Chill Definition


Weather Definition


TIME
00:00 -5.9 -7.9 86 25 30   100.27   -14 LegendNANA
01:00 -6.1 -8.6 82 26 25   100.26   -14 LegendNANA
02:00 -6.2 -8.3 85 25 24   100.25   -14 LegendNANA
03:00 -5.9 -8.2 83 25 28   100.26   -14 LegendNANA
04:00 -5.2 -7.6 83 25 26   100.25   -13 LegendNANA
05:00 -5.3 -8.0 81 26 28   100.22   -13 LegendNANA
06:00 -5.5 -8.7 78 26 25   100.23   -13 LegendNANA
07:00 -5.7 -9.1 77 25 25   100.22   -13 LegendNANA
08:00 -5.4 -8.8 77 25 21   100.21   -12 LegendNANA
09:00 -5.6 -8.3 82 24 23   100.23   -13 LegendNANA
10:00 -5.2 -9.0 75 23 25   100.21   -13 LegendNANA
11:00 -5.3 -8.6 77 25 26   100.21   -13 LegendNANA
12:00 -5.5 -9.3 75 24 24   100.21   -13 LegendNANA
13:00 -5.7 -8.9 78 23 23   100.21   -13 LegendNANA
14:00 -5.6 -9.4 74 23 22   100.19   -13 LegendNANA
15:00 -5.7 -10.5 69 23 22   100.19   -13 LegendNANA
16:00 -5.9 -10.6 70 23 22   100.15   -13 LegendNANA
17:00 -5.8 -9.7 74 20 20   100.14   -13 LegendNANA
18:00 -6.4 -9.4 79 18 20   100.12   -13 LegendNANA
19:00 -6.6 -9.2 81 19 18   100.09   -13 LegendNANA
20:00 -7.3 -10.3 79 18 14   100.07   -13 LegendNANA
21:00 -7.1 -11.3 72 18 15   100.04   -13 LegendNANA
22:00 -8.2 -12.1 73 17 13   100.04   -14 LegendNANA
23:00 -9.4 -12.7 77 5 7   100.05   -13 LegendNANA

Notes on Data Quality.

Legend

  • E = Estimated
  • M = Missing
  • NA = Not Available
  • ‡ = Partner data that is not subject to review by the National Climate Archives
Date modified: